Location: R�serve Fauniques des Laurentides
(47.3100°N, 71.1900°W)
Time: 05:37:18
(UTC-05:00)

Cosmos 1674 - Visible Passes

Search period start: 18 December 2014 00:00
Search period end: 28 December 2014 00:00
Orbit: 510 x 539 km, 82.5° (Epoch: 17 December)

Date Brightness Start Highest point End Pass type
(mag) Time Alt. Az. Time Alt. Az. Time Alt. Az.
25 Dec 5.1 06:49:59 10° NNE 06:53:05 22° ENE 06:56:11 10° SE visible
26 Dec 5.3 06:37:49 10° NNE 06:40:46 20° ENE 06:43:43 10° ESE visible
27 Dec 5.4 06:25:39 10° NNE 06:28:26 18° ENE 06:31:13 10° ESE visible
